Location: Albuquerque Trailhead
(34.7934°N, 106.3736°W)
Time: 05:00:06
(UTC+00:00)

ASTEX 1 - Pass Details

Date: 20 June 2021
Orbit: 720 x 743 km, 92.7° (Epoch: 29 July)

Event Time Altitude Azimuth Distance (km) Brightness Sun altitude
Exits shadow 09:55:54 21° 167° (SSE) 1,594 4.8 -19.3°
Maximum altitude 09:59:11 80° 83° (E) 750 3.4 -18.9°
Drops below altitude 10° 10:04:08 10° 357° (N) 2,235 6.5 -18.2°
Sets 10:06:26 0° 356° (N) 3,157 7.4 -17.9°
